User: anonymous   Login
Location: Unspecified
(0.0000°N, 0.0000°E)
Time: 22:25:19
(UTC+00:00)
Language:

STARLINK-3664 - Orbit

View from above orbital plane
View from above orbital plane
View from above satellite
View from above satellite

Ground track
Ground track

The orbit is defined by the following mean orbital elements,

1 51984U          26145.15669353 +.00000000 +00000-0 +31775-4 0 00003
2 51984  53.2153  55.9314 0001443  91.7403 268.3755 15.08841324    03
Epoch (UTC): 25 May 2026 03:45:38
Eccentricity: 0.0001443
inclination: 53.2153°
perigee height: 539 km
apogee height: 541 km
right ascension of ascending node: 55.9314°
argument of perigee: 91.7403°
revolutions per day: 15.08841324
mean anomaly at epoch: 268.3755°

The dashed part of the orbit path shows where the satellite is in the earth's shadow,  

DLR